This demonstration page uses our WeatherBlox Daily Observations layout. Learn more.

Left ArrowRight Arrow

30.21309, -93.2044

Hourly Observations for August 13, 2020

Temp ( °F °C ) Dew Point ( °F °C ) Humidity (%) Winds ( mph kmh ) Pressure ( in mb ) Visibility ( mi km ) Precip ( " mm )
12:15 am 00:15 Clear 78 25.3 76 24.6 96 96 S 5 7 29.97 1015 10 16 0.00 0.00
12:35 am 00:35 Clear 78 25.3 76 24.6 96 96 Calm 29.97 1015 10 16 0.00 0.00
12:55 am 00:55 Clear 78 25.6 77 24.9 96 96 Calm 29.98 1015 10 16 0.00 0.00
1:15 am 01:15 Clear 78 25.7 77 25 96 96 Calm 29.98 1015 10 16 0.00 0.00
1:35 am 01:35 Clear 78 25.4 76 24.7 96 96 S 3 6 29.98 1015 10 16 0.00 0.00
1:55 am 01:55 Clear 78 25.5 77 24.9 96 96 Calm 29.98 1015 10 16 0.00 0.00
2:15 am 02:15 Clear 78 25.8 77 25 95 95 Calm 29.97 1015 10 16 0.00 0.00
2:35 am 02:35 Clear 77 25.2 76 24.7 97 97 Calm 29.98 1015 10 16 0.00 0.00
2:55 am 02:55 Clear 78 25.3 77 24.9 98 98 Calm 29.97 1015 10 16 0.00 0.00
3:15 am 03:15 Partly Cloudy 77 25.2 77 24.8 98 98 Calm 29.97 1015 10 16 0.00 0.00
3:35 am 03:35 Partly Cloudy 77 25 76 24.6 98 98 Calm 29.97 1015 10 16 0.00 0.00
3:55 am 03:55 Partly Cloudy 77 24.9 76 24.6 98 98 SE 3 6 29.97 1015 10 16 0.00 0.00
4:15 am 04:15 Clear 77 24.9 76 24.6 98 98 SSE 3 6 29.97 1015 10 16 0.00 0.00
4:35 am 04:35 Partly Cloudy 77 24.9 76 24.7 99 99 Calm 29.97 1015 10 16 0.00 0.00
4:55 am 04:55 Clear 77 25.1 77 24.8 98 98 Calm 29.96 1015 10 16 0.00 0.00
5:15 am 05:15 Clear with Mist and Fog 76 24.7 76 24.5 99 99 Calm 29.97 1015 7 11 0.00 0.00
5:35 am 05:35 Partly Cloudy 76 24.3 75 24.1 99 99 ESE 3 6 29.97 1015 7 11 0.00 0.00
6:00 am 06:00 Partly Cloudy 75 24 75 24 100 100 Calm 29.97 1015 10 16 0.00 0.00
6:45 am 06:45 Mostly Sunny 75 24 75 24 100 100 Calm 29.98 1015 10 16 0.00 0.00
7:45 am 07:45 Mostly Sunny 79 26 79 26 100 100 Calm 29.99 1016 10 16 0.00 0.00
8:50 am 08:50 Mostly Sunny 84 29 79 26 84 84 SSW 5 7 30.00 1016 10 16 0.00 0.00
9:50 am 09:50 Mostly Cloudy 88 31 77 25 70 70 SW 12 19 30.01 1016 10 16 0.00 0.00
10:47 am 10:47 Partly Cloudy 90 32 75 24 63 63 SW 7 11 30.02 1017 10 16 0.00 0.00
11:54 am 11:54 Partly Cloudy 91 33 75 24 59 59 SW 5 7 30.01 1016 10 16 0.00 0.00
12:46 pm 12:46 Partly Cloudy 90 32 75 24 63 63 VRB 5 7 29.99 1016 10 16 0.00 0.00
1:45 pm 13:45 Partly Cloudy 91 33 73 23 56 56 Calm 29.96 1015 10 16 0.00 0.00
2:55 pm 14:55 Mostly Cloudy 93 34 73 23 53 53 WSW 7 11 29.93 1014 10 16 0.00 0.00
3:45 pm 15:45 Mostly Cloudy 93 34 77 25 59 59 SW 8 13 29.92 1013 10 16 0.00 0.00
4:55 pm 16:55 Mostly Cloudy 93 34 77 25 59 59 SSW 8 13 29.92 1013 10 16 0.00 0.00
5:50 pm 17:50 Partly Cloudy 90 32 75 24 63 63 SSW 9 15 29.91 1013 10 16 0.00 0.00
6:45 pm 18:45 Partly Cloudy 90 32 75 24 63 63 SSW 10 17 29.91 1013 10 16 0.00 0.00
7:45 pm 19:45 Mostly Cloudy with Thunderstorms 82 28 75 24 79 79 ESE 12 19 29.95 1014 10 16 0.00 0.00
8:55 pm 20:55 Mostly Clear 81 27 73 23 79 79 SSE 3 6 29.93 1014 10 16 0.00 0.00
9:45 pm 21:45 Mostly Clear 79 26 75 24 89 89 SSE 5 7 29.94 1014 10 16 0.00 0.00
10:15 pm 22:15 Clear 79 26.2 76 24.6 91 91 S 3 6 29.95 1014 10 16 0.00 0.00
10:35 pm 22:35 Clear 79 25.9 76 24.4 91 91 Calm 29.95 1014 10 16 0.00 0.00
10:55 pm 22:55 Clear 79 26.1 76 24.4 90 90 S 3 6 29.95 1014 10 16 0.00 0.00
11:15 pm 23:15 Clear 78 25.6 76 24.3 93 93 Calm 29.95 1014 10 16 0.00 0.00
11:35 pm 23:35 Clear 78 25.8 76 24.4 92 92 Calm 29.96 1015 10 16 0.00 0.00
11:55 pm 23:55 Clear 78 25.5 76 24.4 94 94 SE 3 6 29.96 1015 10 16 0.00 0.00

Powered by AerisWeather